| time (UTC) | temp F | wind direction | speed MPH | gust MPH | rain 1hr in | rain 24hr in | rain mn in | humidity % | barometer mb |
| 20260504184536 | 74 | 37 | 4.0 | 11.0 | 0.00 | 0.00 | 0.00 | 47 | 1012.1 |
| 20260504183036 | 73 | 30 | 4.0 | 9.0 | 0.00 | 0.00 | 0.00 | 49 | 1012.2 |
| 20260504181535 | 73 | 33 | 5.0 | 11.0 | 0.00 | 0.00 | 0.00 | 50 | 1012.2 |
| 20260504173034 | 72 | 43 | 4.0 | 9.0 | 0.00 | 0.00 | 0.00 | 51 | 1012.2 |
| 20260504171610 | 71 | 47 | 3.0 | 7.0 | 0.00 | 0.00 | 0.00 | 52 | 1012.2 |
| 20260504150110 | 62 | 91 | 0.0 | 4.0 | 0.00 | 0.00 | 0.00 | 64 | 1012.4 |
| 20260504081650 | 62 | 206 | 1.0 | 6.0 | 0.00 | 0.00 | 0.00 | 51 | 1011.5 |
| 20260504044535 | 67 | 93 | 1.0 | 3.0 | 0.00 | 0.00 | 0.00 | 46 | 1010.8 |
| 20260504041536 | 68 | 191 | 3.0 | 7.0 | 0.00 | 0.00 | 0.00 | 45 | 1010.5 |
| 20260504040046 | 65 | 184 | 3.0 | 6.0 | 0.00 | 0.00 | 0.00 | 50 | 1010.3 |
| 20260504034533 | 66 | 207 | 2.0 | 4.0 | 0.00 | 0.00 | 0.00 | 48 | 1010.2 |
| 20260504031536 | 72 | 207 | 2.0 | 4.0 | 0.00 | 0.00 | 0.00 | 43 | 1009.9 |
| 20260504024532 | 80 | 224 | 0.0 | 3.0 | 0.00 | 0.00 | 0.00 | 32 | 1009.8 |
| 20260504023044 | 82 | 224 | 0.0 | 4.0 | 0.00 | 0.00 | 0.00 | 30 | 1009.8 |
| 20260504023037 | 84 | 252 | 0.0 | 3.0 | 0.00 | 0.00 | 0.00 | 28 | 1010.0 |
| 20260504020036 | 84 | 205 | 0.0 | 2.0 | 0.00 | 0.00 | 0.00 | 27 | 1010.1 |
| 20260504013035 | 87 | 39 | 2.0 | 5.0 | 0.00 | 0.00 | 0.00 | 25 | 1010.3 |
| 20260504010035 | 87 | 38 | 3.0 | 7.0 | 0.00 | 0.00 | 0.00 | 24 | 1010.6 |
| 20260504004531 | 87 | 35 | 3.0 | 6.0 | 0.00 | 0.00 | 0.00 | 23 | 1010.8 |
| 20260504003038 | 88 | 68 | 2.0 | 8.0 | 0.00 | 0.00 | 0.00 | 23 | 1011.0 |
| 20260504000035 | 88 | 68 | 2.0 | 6.0 | 0.00 | 0.00 | 0.00 | 24 | 1011.1 |
| 20260503234535 | 88 | 57 | 1.0 | 6.0 | 0.00 | 0.00 | 0.00 | 23 | 1011.3 |
| 20260503233037 | 87 | 111 | 1.0 | 5.0 | 0.00 | 0.00 | 0.00 | 21 | 1011.5 |
| 20260503231611 | 87 | 147 | 2.0 | 7.0 | 0.00 | 0.00 | 0.00 | 22 | 1011.7 |
| 20260503230035 | 87 | 48 | 3.0 | 8.0 | 0.00 | 0.00 | 0.00 | 22 | 1012.0 |
| 20260503224531 | 87 | 142 | 1.0 | 6.0 | 0.00 | 0.00 | 0.00 | 21 | 1012.2 |
| 20260503223034 | 85 | 208 | 1.0 | 7.0 | 0.00 | 0.00 | 0.00 | 23 | 1012.7 |
| 20260503220036 | 85 | 200 | 2.0 | 9.0 | 0.00 | 0.00 | 0.00 | 24 | 1012.9 |
| 20260503214535 | 84 | 34 | 3.0 | 14.0 | 0.00 | 0.00 | 0.00 | 24 | 1013.1 |
| 20260503213107 | 84 | 34 | 3.0 | 10.0 | 0.00 | 0.00 | 0.00 | 25 | 1013.3 |
| 20260503211610 | 84 | 36 | 3.0 | 8.0 | 0.00 | 0.00 | 0.00 | 26 | 1013.6 |
| 20260503210034 | 83 | 2 | 3.0 | 10.0 | 0.00 | 0.00 | 0.00 | 27 | 1013.7 |
| 20260503204536 | 83 | 355 | 3.0 | 13.0 | 0.00 | 0.00 | 0.00 | 27 | 1013.9 |
| 20260503200036 | 82 | 333 | 3.0 | 14.0 | 0.00 | 0.00 | 0.00 | 28 | 1014.3 |
| 20260503194535 | 81 | 345 | 3.0 | 8.0 | 0.00 | 0.00 | 0.00 | 33 | 1014.6 |
| 20260503191535 | 80 | 345 | 2.0 | 8.0 | 0.00 | 0.00 | 0.00 | 40 | 1014.7 |
| 20260503190035 | 78 | 355 | 3.0 | 7.0 | 0.00 | 0.00 | 0.00 | 44 | 1014.9 |